Rutland, VT

1:56 AM EDT on September 26, 2017 (GMT -0400)
Rutland State

Weather History for KRUT - April, 2014

Change the Weather History Date:

Friday, April 11, 2014

  Actual Average Record
Temperature  
Mean Temperature 52 °F -  
Max Temperature 64 °F - 81 °F (2017)
Min Temperature 39 °F - 14 °F (1974)
Degree Days  
Heating Degree Days 13    
Month to date heating degree days 259  
Since 1 July heating degree days 7236  
Cooling Degree Days 0    
Month to date cooling degree days 0  
Year to date cooling degree days 0  
Growing Degree Days 2 (Base 50)    
Moisture  
Dew Point 31 °F    
Average Humidity 56    
Maximum Humidity 93    
Minimum Humidity 19    
Precipitation  
Precipitation 0.01 in - 1.12 in (1990)
Month to date precipitation 0.28  
Year to date precipitation 5.33  
Sea Level Pressure  
Sea Level Pressure 29.94 in    
Wind  
Wind Speed 7 mph (WSW)    
Max Wind Speed 14 mph    
Max Gust Speed 20 mph    
Visibility 10 miles    
Events      
T = Trace of Precipitation, MM = Missing Value Source: NWS Daily Summary

Daily Weather History Graph

Daily Weather History Graph

Search for Another Location

Airport or City:

Trip Planner

Search our weather history database for the weather conditions in past years. The results will help you decide how hot, cold, wet, or windy it might be!

Date:

Astronomy

Apr. 11, 2014 Rise Set
Actual Time 6:16 AM EDT 7:30 PM EDT
Civil Twilight 5:46 AM EDT 7:59 PM EDT
Nautical Twilight 5:11 AM EDT 8:35 PM EDT
Astronomical Twilight 4:33 AM EDT 9:12 PM EDT
Moon 4:02 PM EDT (4/11) 4:16 AM EDT (4/11)
Length of Visible Light 14h 13m
Length of Day
13h 14m
Waxing Gibbous, 87% of the Moon is Illuminated
Apr 11
Waxing Gibbous
Apr 15
Full
Apr 22
Last Quarter
Apr 29
New
May 6
First Quarter

Hourly Weather History & Observations

Time (EDT) Temp. Windchill Dew Point Humidity Pressure Visibility Wind Dir Wind Speed Gust Speed Precip Events Conditions
12:15 AM 53.6 °F - 28.4 °F 38% 29.88 in 10.0 mi SSE 4.6 mph - N/A   Partly Cloudy
12:35 AM 53.6 °F - 28.4 °F 38% 29.87 in 10.0 mi SSE 5.8 mph - N/A   Partly Cloudy
12:55 AM 53.6 °F - 28.4 °F 38% 29.86 in 10.0 mi SE 6.9 mph - N/A   Clear
1:15 AM 53.6 °F - 30.2 °F 41% 29.86 in 10.0 mi SSE 6.9 mph - N/A   Partly Cloudy
1:35 AM 55.4 °F - 30.2 °F 38% 29.86 in 10.0 mi SSE 8.1 mph - N/A   Partly Cloudy
1:55 AM 53.6 °F - 30.2 °F 41% 29.85 in 10.0 mi SSE 5.8 mph - N/A   Clear
2:15 AM 53.6 °F - 30.2 °F 41% 29.85 in 10.0 mi SSW 3.5 mph - N/A   Scattered Clouds
2:35 AM 53.6 °F - 30.2 °F 41% 29.85 in 10.0 mi Calm Calm - N/A   Overcast
2:55 AM 51.8 °F - 30.2 °F 44% 29.85 in 10.0 mi Calm Calm - N/A   Overcast
3:15 AM 51.8 °F - 30.2 °F 44% 29.85 in 10.0 mi NE 5.8 mph - N/A   Overcast
3:35 AM 48.2 °F - 32.0 °F 54% 29.85 in 10.0 mi Calm Calm - N/A   Overcast
3:55 AM 50.0 °F - 30.2 °F 47% 29.86 in 10.0 mi SW 3.5 mph - N/A   Overcast
4:15 AM 51.8 °F - 32.0 °F 47% 29.86 in 10.0 mi SSE 4.6 mph - N/A   Overcast
4:35 AM 51.8 °F - 32.0 °F 47% 29.86 in 10.0 mi East 4.6 mph - N/A   Overcast
4:55 AM 51.8 °F - 32.0 °F 47% 29.87 in 10.0 mi North 4.6 mph - N/A   Overcast
5:15 AM 53.6 °F - 30.2 °F 41% 29.88 in 10.0 mi WSW 3.5 mph - N/A   Overcast
5:35 AM 51.8 °F - 32.0 °F 47% 29.88 in 10.0 mi Calm Calm - N/A   Mostly Cloudy
5:55 AM 53.6 °F - 32.0 °F 44% 29.90 in 10.0 mi North 3.5 mph - N/A   Overcast
6:15 AM 53.6 °F - 32.0 °F 44% 29.90 in 10.0 mi Calm Calm - N/A   Overcast
6:35 AM 53.6 °F - 33.8 °F 47% 29.91 in 10.0 mi West 4.6 mph - N/A   Overcast
6:55 AM 53.6 °F - 35.6 °F 51% 29.92 in 10.0 mi WNW 4.6 mph - N/A   Overcast
7:15 AM 53.6 °F - 35.6 °F 51% 29.93 in 10.0 mi WNW 4.6 mph - N/A   Overcast
7:35 AM 51.8 °F - 37.4 °F 58% 29.94 in 10.0 mi NW 3.5 mph - N/A   Overcast
7:55 AM 53.6 °F - 35.6 °F 51% 29.95 in 10.0 mi WNW 10.4 mph - N/A   Overcast
8:15 AM 51.8 °F - 35.6 °F 54% 29.96 in 10.0 mi NW 9.2 mph - N/A   Overcast
8:55 AM 53.6 °F - 35.6 °F 51% 29.97 in 10.0 mi West 12.7 mph 18.4 mph N/A   Mostly Cloudy
9:15 AM 53.6 °F - 30.2 °F 41% 29.98 in 10.0 mi WNW 10.4 mph - N/A   Mostly Cloudy
9:35 AM 55.4 °F - 26.6 °F 33% 29.98 in 10.0 mi NW 10.4 mph - N/A   Mostly Cloudy
9:55 AM 55.4 °F - 26.6 °F 33% 29.98 in 10.0 mi NW 9.2 mph - N/A   Partly Cloudy
10:15 AM 55.4 °F - 28.4 °F 36% 29.98 in 10.0 mi NNW 10.4 mph 16.1 mph N/A   Clear
10:35 AM 55.4 °F - 28.4 °F 36% 29.98 in 10.0 mi NW 9.2 mph - N/A   Clear
10:55 AM 57.2 °F - 24.8 °F 29% 29.98 in 10.0 mi NW 9.2 mph 17.3 mph N/A   Clear
11:15 AM 57.2 °F - 24.8 °F 29% 29.97 in 10.0 mi NW 9.2 mph 16.1 mph N/A   Clear
11:35 AM 57.2 °F - 26.6 °F 31% 29.97 in 10.0 mi West 8.1 mph - N/A   Clear
11:55 AM 57.2 °F - 26.6 °F 31% 29.96 in 10.0 mi NNW 10.4 mph - N/A   Clear
12:15 PM 60.8 °F - 28.4 °F 29% 29.96 in 10.0 mi NNW 6.9 mph - N/A   Clear
12:35 PM 60.8 °F - 28.4 °F 29% 29.95 in 10.0 mi WNW 6.9 mph - N/A   Clear
12:55 PM 60.8 °F - 26.6 °F 27% 29.95 in 10.0 mi NW 8.1 mph 16.1 mph N/A   Clear
1:15 PM 60.8 °F - 26.6 °F 27% 29.95 in 10.0 mi WNW 6.9 mph - N/A   Clear
1:35 PM 62.6 °F - 26.6 °F 26% 29.95 in 10.0 mi WSW 5.8 mph 16.1 mph N/A   Clear
1:55 PM 62.6 °F - 24.8 °F 24% 29.94 in 10.0 mi WNW 11.5 mph - N/A   Clear
2:15 PM 62.6 °F - 26.6 °F 26% 29.93 in 10.0 mi NW 5.8 mph - N/A   Clear
2:35 PM 62.6 °F - 24.8 °F 24% 29.93 in 10.0 mi West 11.5 mph 17.3 mph N/A   Clear
2:55 PM 62.6 °F - 21.2 °F 20% 29.92 in 10.0 mi WNW 5.8 mph 16.1 mph N/A   Clear
3:15 PM 64.4 °F - 21.2 °F 19% 29.93 in 10.0 mi WNW 9.2 mph 16.1 mph N/A   Clear
3:35 PM 62.6 °F - 19.4 °F 19% 29.94 in 10.0 mi WNW 11.5 mph 18.4 mph N/A   Mostly Cloudy
3:55 PM 62.6 °F - 19.4 °F 19% 29.93 in 10.0 mi WNW 9.2 mph - N/A   Mostly Cloudy
4:15 PM 62.6 °F - 19.4 °F 19% 29.92 in 10.0 mi WNW 10.4 mph - N/A   Overcast
4:35 PM 60.8 °F - 21.2 °F 22% 29.93 in 10.0 mi WNW 10.4 mph - N/A   Overcast
4:55 PM 60.8 °F - 23.0 °F 23% 29.94 in 10.0 mi NW 3.5 mph - N/A   Overcast
5:15 PM 59.0 °F - 23.0 °F 25% 29.94 in 10.0 mi SW 11.5 mph 27.6 mph N/A   Overcast
5:35 PM 57.2 °F - 26.6 °F 31% 29.96 in 10.0 mi SSW 12.7 mph 24.2 mph N/A   Overcast
5:55 PM 55.4 °F - 28.4 °F 36% 29.97 in 10.0 mi SW 13.8 mph 19.6 mph N/A   Overcast
6:15 PM 53.6 °F - 30.2 °F 41% 29.98 in 10.0 mi SSW 11.5 mph 18.4 mph N/A   Overcast
6:35 PM 51.8 °F - 33.8 °F 50% 29.99 in 10.0 mi South 9.2 mph - N/A   Mostly Cloudy
6:55 PM 50.0 °F - 37.4 °F 62% 30.00 in 10.0 mi SW 6.9 mph - N/A   Overcast
7:15 PM 48.2 °F - 39.2 °F 71% 30.01 in 10.0 mi South 9.2 mph - 0.01 in   Overcast
7:35 PM 46.4 °F 42.4 °F 41.0 °F 81% 30.00 in 10.0 mi South 8.1 mph - 0.01 in   Overcast
7:55 PM 46.4 °F 43.5 °F 41.0 °F 81% 30.00 in 10.0 mi SSE 5.8 mph - 0.01 in   Overcast
8:15 PM 46.4 °F 45.2 °F 39.2 °F 76% 30.01 in 10.0 mi South 3.5 mph - N/A   Overcast
8:35 PM 46.4 °F 43.5 °F 39.2 °F 76% 30.02 in 10.0 mi South 5.8 mph - N/A   Overcast
8:55 PM 44.6 °F 40.2 °F 39.2 °F 81% 30.03 in 10.0 mi SSE 8.1 mph - N/A   Overcast
9:15 PM 44.6 °F 41.4 °F 41.0 °F 87% 30.03 in 10.0 mi SSE 5.8 mph - N/A   Mostly Cloudy
9:35 PM 46.4 °F 42.9 °F 39.2 °F 76% 30.04 in 10.0 mi SSE 6.9 mph - N/A   Overcast
9:55 PM 44.6 °F 41.4 °F 39.2 °F 81% 30.04 in 10.0 mi SE 5.8 mph - N/A   Scattered Clouds
10:15 PM 44.6 °F - 39.2 °F 81% 30.03 in 10.0 mi Calm Calm - N/A   Mostly Cloudy
10:35 PM 42.8 °F 40.1 °F 39.2 °F 87% 30.03 in 10.0 mi SSE 4.6 mph - N/A   Overcast
10:55 PM 41.0 °F 35.2 °F 39.2 °F 93% 30.02 in 10.0 mi ESE 9.2 mph - N/A   Scattered Clouds
11:15 PM 41.0 °F 35.8 °F 39.2 °F 93% 30.02 in 10.0 mi SE 8.1 mph - N/A   Clear
11:35 PM 39.2 °F 32.5 °F 37.4 °F 93% 30.01 in 10.0 mi SE 10.4 mph - N/A   Clear
11:55 PM 39.2 °F 33.0 °F 37.4 °F 93% 30.02 in 10.0 mi ESE 9.2 mph - N/A   Clear